[[{"header":{"parameterUnit":"m.s-1","parameterCategory":1,"la1":30.2991,"la2":30.254,"lo1":-89.0895,"lo2":-89.0444,"dy":0.0017,"dx":0.0017,"nx":28,"ny":28,"refTime":"2023-10-11T03:00:00:Z","depth":0,"parameterNumber":2,"parameterNumberName":"U-component_of_WINDS"},"data":[0,0,0,0,0,0,0,0,0,0,0,0,0,0,0,0,0,0,0,0,0,0,0,0,0,0,0,0,0,0,0,0,0,0,0,0,0,0,0,0,0,0,0,0,0,0,0,0,0,0,0,0,0,0,0,0,0,0,-0.9771,-0.9771,0,-0.9711,-0.971,-0.971,-0.9663,-0.9662,-0.9662,-0.9661,-0.9597,-0.9596,-0.9595,0,0,0,0,0,0,0,0,0,0,0,0,0,-0.9845,-0.9844,-0.9771,-0.9771,-0.977,-0.9711,-0.971,-0.971,-0.9663,-0.9662,-0.9662,-0.9661,-0.9597,-0.9596,-0.9594,0,0,0,0,0,0,0,0,0,0,0,0,0,-0.9802,-0.9844,-0.9772,-0.974,-0.9736,-0.9711,-0.971,-0.9709,-0.9663,-0.9662,-0.9662,-0.9661,-0.9598,-0.9596,-0.9594,-0.9596,0,0,-0.9588,-0.9587,0,0,0,0,0,0,0,0,-0.9804,-0.9799,-0.9745,-0.9742,-0.9738,-0.9694,-0.9713,-0.9671,-0.9663,-0.9691,-0.9661,-0.9661,-0.963,-0.9625,-0.9615,-0.9593,-0.959,-0.9588,-0.9587,-0.9586,-0.9585,0,0,0,0,0,0,0,-0.9807,-0.9802,-0.9747,-0.9744,-0.974,-0.9728,-0.9721,-0.9705,-0.9664,-0.9688,-0.9685,-0.9678,-0.9627,-0.9617,-0.9613,-0.9589,-0.9588,-0.9586,-0.9585,-0.9584,-0.9567,-0.9568,0,0,0,0,0,0,-0.9816,-0.9804,-0.9749,-0.9746,-0.977,-0.9727,-0.972,-0.9709,-0.9665,-0.9657,-0.9679,-0.9676,-0.9621,-0.9616,-0.9611,-0.9611,-0.9586,-0.9584,-0.9583,-0.9566,-0.9567,-0.9568,0,0,0,0,0,0,-0.9817,-0.9811,-0.9752,-0.9774,-0.9766,-0.9727,-0.9715,-0.9708,-0.9697,-0.9658,-0.965,-0.9676,-0.962,-0.9614,-0.96,-0.9608,-0.9583,-0.9582,-0.9565,-0.9567,-0.9567,-0.9611,0,0,0,0,0,0,-0.982,-0.9812,-0.9812,-0.9774,-0.9765,-0.9743,-0.9715,-0.9707,-0.9694,-0.969,-0.9653,-0.9646,-0.9619,-0.9604,-0.9599,-0.9605,-0.958,-0.9565,-0.9566,-0.9567,-0.9609,-0.9614,-0.9618,0,0,0,0,0,-0.9823,-0.9826,-0.9812,-0.9806,-0.9764,-0.9743,-0.9738,-0.9708,-0.9695,-0.9695,-0.967,-0.9647,-0.9608,-0.9603,-0.9597,-0.9603,-0.9564,-0.9566,-0.9567,-0.9607,-0.9613,-0.9618,0,0,0,0,0,0,-0.9864,-0.982,-0.9805,-0.9796,-0.9774,-0.9735,-0.9734,-0.9714,-0.9694,-0.9691,-0.9654,-0.9646,-0.9638,-0.9618,-0.9613,-0.9603,-0.9583,-0.9584,-0.9616,-0.9621,-0.9625,-0.963,-0.9578,0,0,0,0,0,-0.9872,-0.986,-0.9822,-0.9818,-0.9807,-0.9773,-0.9763,-0.9742,-0.9717,-0.9707,-0.9681,-0.9657,-0.964,-0.9629,-0.9611,-0.9606,-0.9598,-0.9607,-0.9612,-0.9616,-0.9616,-0.9615,-0.9619,-0.9573,-0.9573,-0.9573,0,0,-0.9889,-0.9863,-0.9857,-0.9825,-0.9806,-0.9794,-0.9765,-0.9753,-0.9744,-0.9705,-0.9692,-0.9672,-0.9643,-0.9635,-0.963,-0.9619,-0.9628,-0.9618,-0.9621,-0.962,-0.9617,-0.9621,-0.9625,-0.9574,-0.9574,-0.9574,0,0,-0.9913,-0.9892,-0.9887,-0.9869,-0.984,-0.9818,-0.9817,-0.9782,-0.9768,-0.9755,-0.9726,-0.9714,-0.9685,-0.9666,-0.9653,-0.9673,-0.9652,-0.9668,-0.9691,-0.969,-0.9694,-0.9697,-0.9705,-0.9709,-0.9669,-0.9669,-0.9669,0,-0.9937,-0.9918,-0.9887,-0.9878,-0.9865,-0.9831,-0.9827,-0.981,-0.9777,-0.9769,-0.9757,-0.9722,-0.9699,-0.9688,-0.9693,-0.9683,-0.9681,-0.9672,-0.9696,-0.9698,-0.9701,-0.9709,-0.9712,-0.9672,-0.9671,-0.9671,-0.9671,0,-0.9949,-0.9937,-0.9937,-0.9907,-0.9895,-0.9887,-0.9856,-0.9847,-0.9828,-0.9807,-0.9795,-0.9767,-0.9744,-0.974,-0.972,-0.9726,-0.972,-0.9703,-0.9682,-0.9708,-0.9715,-0.9718,-0.9675,-0.9674,-0.9673,-0.9673,0,0,-0.9996,-0.9952,-0.9953,-0.994,-0.9907,-0.9897,-0.9889,-0.9868,-0.9861,-0.984,-0.9833,-0.981,-0.9795,-0.978,-0.9758,-0.9757,-0.9777,-0.974,-0.9738,-0.9749,-0.9784,-0.9798,-0.9802,-0.9763,-0.9763,-0.9764,-0.9787,0,-1.0016,-1.0001,-0.9974,-0.9967,-0.9956,-0.9925,-0.9919,-0.9898,-0.9879,-0.9867,-0.9845,-0.983,-0.981,-0.9801,-0.9799,-0.9775,-0.9784,-0.9773,-0.9756,-0.9756,-0.9765,-0.9805,-0.9819,-0.9842,-0.9789,-0.9789,-0.979,0,-1.0037,-1.002,-1.0012,-0.9983,-0.9977,-0.9971,-0.9951,-0.994,-0.9916,-0.9902,-0.9888,-0.9864,-0.9855,-0.9837,-0.9824,-0.9817,-0.9809,-0.9797,-0.9797,-0.9795,-0.9775,-0.9805,-0.9848,-0.9852,-0.9793,-0.9793,-0.9793,0,-1.0074,-1.0048,-1.0041,-1.0031,-0.9996,-0.9993,-0.9978,-0.9954,-0.9944,-0.9926,-0.992,-0.99,-0.989,-0.9876,-0.9849,-0.9838,-0.984,-0.9818,-0.9828,-0.9829,-0.983,-0.9831,-0.9874,-0.9824,-0.9824,-0.9824,-0.9824,0,-1.0099,-1.0096,-1.0058,-1.0053,-1.005,-1.002,-1.0017,-0.9999,-0.9978,-0.9971,-0.9942,-0.9935,-0.9899,-0.9888,-0.9867,-0.9861,-0.9856,-0.9845,-0.9839,-0.9848,-0.9849,-0.9842,-0.984,-0.9825,-0.9824,-0.9824,-0.9824,0,-1.0139,-1.0113,-1.0104,-1.0073,-1.0065,-1.0064,-1.0037,-1.0032,-1.0012,-1.0002,-0.9998,-0.9966,-0.9952,-0.9924,-0.9901,-0.9887,-0.9886,-0.9876,-0.9895,-0.9892,-0.9904,-0.9904,-0.9945,-0.9949,-0.9895,-0.9896,-0.9896,0,-1.0157,-1.0155,-1.0124,-1.0117,-1.0104,-1.0093,-1.0083,-1.0054,-1.0045,-1.002,-1.0018,-1.0003,-0.9988,-0.9967,-0.9942,-0.9926,-0.9915,-0.9931,-0.9912,-0.9922,-0.9917,-0.9918,-0.9918,-0.9935,-0.9936,-0.9936,-0.9937,0,-1.0193,-1.0181,-1.0168,-1.0152,-1.0142,-1.0127,-1.011,-1.0107,-1.0073,-1.0065,-1.0051,-1.004,-1.0019,-1.0004,-0.9984,-0.9969,-0.9948,-0.9943,-0.9945,-0.9954,-0.9965,-0.9961,-0.9907,-0.9942,-0.9942,-0.9941,-0.9941,-0.9941,-1.0223,-1.0221,-1.0199,-1.0187,-1.0172,-1.0158,-1.0153,-1.0133,-1.0121,-1.0103,-1.0086,-1.0074,-1.0053,-1.0024,-1.0011,-1.0001,-0.9991,-0.9993,-0.9993,-0.9995,-0.9999,-0.9967,-0.9997,-0.9997,-0.9997,-0.9997,-0.9997,0,-1.0259,-1.0244,-1.0233,-1.0212,-1.0203,-1.0185,-1.0167,-1.016,-1.0151,-1.0133,-1.0121,-1.0106,-1.0092,-1.0067,-1.0051,-1.0048,-1.0039,-1.0045,-1.0045,-1.0043,-1.0008,-1.0009,-1.0054,-1.0054,-1.0054,-1.0054,-1.0054,-1.0054,-1.0276,-1.0271,-1.0257,-1.0245,-1.023,-1.0219,-1.0211,-1.0198,-1.0184,-1.017,-1.0159,-1.0143,-1.0123,-1.0105,-1.0092,-1.0085,-1.0081,-1.0091,-1.0082,-1.005,-1.0045,-1.004,-1.004,-1.009,-1.0091,-1.0117,-1.0117,-1.0117]},{"header":{"parameterUnit":"m.s-1","parameterCategory":1,"la1":30.2991,"la2":30.254,"lo1":-89.0895,"lo2":-89.0444,"dy":0.0017,"dx":0.0017,"nx":28,"ny":28,"refTime":"2023-10-11T03:00:00:Z","depth":0,"parameterNumber":3,"parameterNumberName":"V-component_of_WINDS"},"data":[0,0,0,0,0,0,0,0,0,0,0,0,0,0,0,0,0,0,0,0,0,0,0,0,0,0,0,0,0,0,0,0,0,0,0,0,0,0,0,0,0,0,0,0,0,0,0,0,0,0,0,0,0,0,0,0,0,0,1.9318,1.9317,0,1.925,1.9249,1.9248,1.9274,1.9276,1.9277,1.9279,1.9202,1.9199,1.9195,0,0,0,0,0,0,0,0,0,0,0,0,0,1.9463,1.946,1.9318,1.9317,1.9316,1.925,1.9249,1.9248,1.9274,1.9276,1.9278,1.928,1.9203,1.9199,1.9195,0,0,0,0,0,0,0,0,0,0,0,0,0,1.9398,1.9459,1.9318,1.9321,1.9321,1.925,1.9249,1.9248,1.9273,1.9276,1.9278,1.928,1.9205,1.92,1.9194,1.9114,0,0,1.9178,1.9176,0,0,0,0,0,0,0,0,1.9401,1.9392,1.9321,1.9321,1.932,1.9273,1.9272,1.9203,1.9273,1.9291,1.9279,1.9282,1.9223,1.9217,1.9199,1.9111,1.9107,1.9178,1.9175,1.9172,1.9171,0,0,0,0,0,0,0,1.9406,1.9395,1.9291,1.932,1.932,1.9324,1.9317,1.9259,1.9244,1.929,1.9292,1.9284,1.9223,1.9204,1.9197,1.9106,1.9178,1.9173,1.917,1.9168,1.8948,1.8945,0,0,0,0,0,0,1.9412,1.9399,1.9293,1.9289,1.9368,1.9319,1.9312,1.9286,1.9245,1.9242,1.9282,1.9285,1.9211,1.9203,1.9194,1.9097,1.9172,1.9167,1.9164,1.895,1.8947,1.8944,0,0,0,0,0,0,1.9415,1.9402,1.9295,1.9344,1.9331,1.9314,1.9285,1.9283,1.9263,1.9239,1.9236,1.9264,1.9213,1.9202,1.9134,1.9094,1.9165,1.916,1.8953,1.8949,1.8946,1.8901,0,0,0,0,0,0,1.9419,1.9403,1.9374,1.9343,1.9328,1.9238,1.9282,1.928,1.9255,1.9259,1.9222,1.9218,1.9214,1.9142,1.9129,1.9088,1.9156,1.8957,1.8952,1.8947,1.8906,1.8896,1.8888,0,0,0,0,0,1.9424,1.9363,1.9372,1.9359,1.9292,1.9236,1.9227,1.9225,1.9252,1.9221,1.9206,1.9219,1.9101,1.9135,1.912,1.9078,1.8959,1.8953,1.8947,1.891,1.8898,1.8888,0,0,0,0,0,0,1.9386,1.9359,1.9369,1.9297,1.9269,1.9241,1.9202,1.9213,1.9175,1.918,1.9177,1.9169,1.9099,1.9082,1.9119,1.8997,1.9034,1.9025,1.9011,1.8999,1.899,1.8994,1.9152,0,0,0,0,0,1.937,1.9329,1.9306,1.9245,1.923,1.9219,1.9194,1.9196,1.9165,1.9153,1.9133,1.9101,1.9056,1.9027,1.8985,1.8905,1.8896,1.8868,1.8859,1.8851,1.8842,1.8797,1.8784,1.8924,1.8924,1.8924,0,0,1.9335,1.9315,1.9289,1.9237,1.9215,1.917,1.9208,1.916,1.9126,1.9145,1.908,1.9064,1.9028,1.8953,1.8919,1.8937,1.8802,1.8843,1.8838,1.8833,1.8789,1.8776,1.8764,1.892,1.8921,1.8922,0,0,1.9248,1.923,1.9176,1.9154,1.9122,1.9115,1.9102,1.9072,1.9063,1.8998,1.9011,1.897,1.8894,1.8868,1.8845,1.8748,1.8759,1.8735,1.8685,1.8641,1.863,1.862,1.8584,1.8571,1.8726,1.8726,1.8726,0,1.9208,1.9143,1.9146,1.9097,1.9072,1.909,1.9034,1.9012,1.8967,1.8948,1.897,1.8875,1.8852,1.8771,1.8747,1.8729,1.8712,1.8738,1.8632,1.8622,1.8613,1.8578,1.8564,1.8723,1.8724,1.8724,1.8724,0,1.9095,1.905,1.901,1.8968,1.8939,1.8886,1.8879,1.8849,1.8853,1.8843,1.8776,1.875,1.8702,1.8684,1.8686,1.8602,1.8614,1.8633,1.867,1.8596,1.8563,1.855,1.8719,1.872,1.8721,1.8722,0,0,1.898,1.8942,1.8927,1.8908,1.8874,1.8838,1.8785,1.8741,1.8715,1.8683,1.8637,1.8573,1.8591,1.8564,1.8564,1.8526,1.8449,1.855,1.8549,1.853,1.8352,1.8336,1.8321,1.8457,1.8454,1.8452,1.8355,0,1.889,1.88,1.8801,1.8716,1.8674,1.869,1.8644,1.8617,1.8606,1.8566,1.8554,1.8507,1.8536,1.852,1.8483,1.8466,1.8413,1.8473,1.8411,1.8409,1.8418,1.8304,1.8287,1.8196,1.8342,1.834,1.8338,0,1.8771,1.8738,1.865,1.8622,1.8604,1.8563,1.8522,1.8485,1.8453,1.8448,1.8419,1.8425,1.8369,1.8409,1.833,1.8372,1.8346,1.8334,1.8331,1.8323,1.8368,1.8291,1.8167,1.8153,1.8318,1.832,1.8321,0,1.8695,1.8627,1.8566,1.8549,1.8515,1.8486,1.847,1.8442,1.8415,1.8378,1.836,1.8317,1.8293,1.8259,1.8252,1.8282,1.8172,1.8212,1.8164,1.8164,1.8138,1.8139,1.8006,1.8125,1.8125,1.8126,1.8126,0,1.8592,1.8536,1.8531,1.8493,1.8431,1.8432,1.837,1.8356,1.8331,1.8289,1.83,1.826,1.8254,1.8212,1.8206,1.8141,1.813,1.8122,1.8121,1.812,1.8121,1.8102,1.8107,1.8122,1.8123,1.8124,1.8124,0,1.8495,1.8489,1.8423,1.8397,1.8389,1.8344,1.8321,1.8283,1.8274,1.8221,1.8208,1.8193,1.8143,1.8134,1.8075,1.8071,1.7992,1.7998,1.8003,1.8003,1.7955,1.7959,1.7803,1.7782,1.7917,1.7915,1.7914,0,1.8428,1.8387,1.8357,1.8331,1.8314,1.8271,1.8244,1.8244,1.8215,1.8176,1.8143,1.8095,1.8057,1.7977,1.7959,1.7913,1.7917,1.7866,1.791,1.791,1.7914,1.7915,1.791,1.7856,1.7855,1.7854,1.7853,0,1.8311,1.831,1.8272,1.8233,1.8202,1.817,1.814,1.8117,1.8113,1.8079,1.803,1.8001,1.7941,1.7893,1.7848,1.7829,1.7838,1.7839,1.7825,1.7823,1.7827,1.7822,1.7978,1.7842,1.7843,1.7844,1.7845,1.7845,1.8225,1.8189,1.8162,1.8119,1.8098,1.8069,1.8033,1.802,1.798,1.7933,1.7935,1.788,1.7849,1.779,1.7768,1.7724,1.774,1.772,1.7715,1.7709,1.7704,1.7836,1.7716,1.7716,1.7716,1.7717,1.7717,0,1.8107,1.8091,1.8052,1.8011,1.7976,1.7992,1.796,1.7929,1.7882,1.7854,1.7816,1.7759,1.7712,1.7691,1.7645,1.7613,1.7616,1.7601,1.7602,1.7597,1.7693,1.7709,1.7599,1.7599,1.7599,1.7599,1.7599,1.7599,1.8041,1.7979,1.7975,1.7902,1.7886,1.7835,1.7815,1.7788,1.7766,1.7702,1.7664,1.7652,1.7625,1.7577,1.7534,1.7529,1.751,1.7492,1.7489,1.7578,1.759,1.7602,1.7616,1.7488,1.7488,1.7396,1.7395,1.7394]}]]